Temp
59 60 59 59 59 59 59 59 59 59 59 60 60 60 60 60 59 53 46 57 57 65 67 64 65 64 64 59 64 62 46 49 51 54 57 62 61 74 82 81 87 90 85 87 87
59 59 59 59 59 59 59 59 59 59 59 59 60 60 60 60 53 47 57 65 68 69 62 58 58 61 54 56 59 54 50 54 59 62 59 62 63 69 76 78 81 85 87 89 86
58 59 59 59 58 58 58 58 59 59 59 59 59 60 59 59 42 50 69 68 71 71 67 65 63 59 52 54 55 54 53 62 61 65 65 66 69 72 73 71 77 79 83 86 85
58 58 58 58 58 58 58 58 58 59 59 59 59 59 59 55 42 62 72 71 71 72 64 61 57 50 48 50 55 50 60 64 61 67 68 67 71 71 72 73 81 82 87 87 84
57 58 58 58 58 58 57 58 58 58 58 58 59 59 56 46 46 62 68 68 68 67 61 58 53 51 46 50 55 55 58 62 66 66 66 69 68 68 71 78 83 82 81 85 84
57 57 57 57 57 57 57 57 56 57 57 58 59 59 49 39 60 64 63 64 63 56 56 56 55 56 51 52 52 57 60 62 64 63 65 66 68 67 74 76 78 78 76 77 83
57 56 56 57 57 57 57 56 56 56 58 58 59 57 48 45 62 63 61 57 60 60 56 60 62 58 56 52 59 59 54 59 61 64 64 65 62 65 74 75 74 75 78 76 79
57 56 56 56 56 57 57 56 56 57 60 60 60 55 45 60 60 58 60 57 61 60 59 64 65 57 56 57 57 50 51 46 60 62 66 64 55 69 72 72 72 74 76 76 76
56 56 56 56 56 56 56 56 57 60 62 60 52 47 42 63 60 63 61 60 64 65 64 70 64 55 53 48 42 45 39 44 51 63 62 62 57 68 71 70 69 70 72 74 72
56 56 55 56 56 56 56 56 57 58 61 60 58 44 50 56 64 69 71 69 61 61 58 57 54 49 51 47 34 39 41 46 48 56 62 60 59 65 70 70 69 69 70 71 71
56 55 55 55 55 55 52 47 53 49 51 50 54 53 57 65 69 65 68 64 60 54 44 47 40 38 42 47 49 49 47 46 53 60 59 59 60 64 68 66 66 66 67 69 71
55 55 55 55 55 55 48 47 53 55 46 59 59 59 64 62 56 62 67 55 50 43 48 42 36 46 52 52 49 48 45 46 54 60 57 58 59 63 65 70 70 65 66 67 68
55 55 55 55 54 53 51 55 61 57 42 51 59 59 59 60 55 56 61 54 49 45 43 39 44 52 48 48 46 48 46 46 48 56 58 56 53 56 64 67 71 69 71 69 69
54 54 55 54 52 48 51 61 59 56 33 45 54 59 62 57 50 63 62 53 48 42 46 42 50 47 46 44 47 40 52 52 51 49 40 55 42 52 61 64 67 71 65 69 71
54 54 55 54 44 46 58 56 55 52 18 52 54 67 63 56 57 53 60 53 43 44 42 40 45 46 42 46 48 42 53 50 49 47 41 47 40 50 58 59 62 67 67 66 68
54 54 54 51 45 52 58 57 52 32 23 45 54 51 50 54 53 57 57 53 52 44 45 42 53 48 47 51 48 52 48 51 48 42 36 45 43 43 50 60 66 68 66 68 66
54 53 52 55 50 57 57 50 32 25 48 43 44 48 47 45 47 49 47 41 37 32 33 43 45 51 53 44 48 44 36 33 27 32 33 47 46 47 56 64 68 67 66 67 67
53 52 51 56 52 55 53 41 28 41 41 50 48 46 41 45 43 45 42 37 45 39 36 32 31 45 51 46 42 40 38 33 24 29 34 49 43 49 64 66 70 74 71 68 66
52 46 50 57 59 55 46 27 29 39 47 44 45 39 39 43 40 40 39 36 41 42 32 32 33 49 49 52 49 43 36 48 35 37 33 40 49 56 62 61 64 66 65 65 65
44 43 49 61 59 50 39 36 39 50 50 47 36 41 34 37 36 37 38 41 42 45 43 40 30 46 46 49 49 45 47 36 35 27 26 38 44 43 52 55 56 60 62 63 63
42 43 56 61 56 44 29 34 46 54 52 45 40 36 38 36 37 35 38 44 45 43 44 41 36 37 45 42 41 41 37 38 41 39 28 33 37 52 49 53 53 52 58 58 59
39 38 56 56 40 36 35 42 48 49 51 49 45 42 38 38 36 35 35 40 48 44 37 39 33 29 33 49 50 47 41 40 31 33 36 35 35 50 49 55 53 56 59 61 64
37 38 53 51 29 30 39 44 47 47 46 44 42 45 44 38 32 37 40 48 46 41 38 40 33 26 34 38 45 41 44 44 40 40 36 31 36 53 55 57 56 59 61 62 63
38 34 39 39 39 33 33 36 40 50 47 46 43 45 40 38 42 35 38 42 45 43 47 45 34 31 26 34 37 36 42 46 40 33 38 38 42 49 53 55 58 59 60 61 61
38 33 37 28 33 35 36 40 39 37 46 44 42 42 38 33 35 38 40 41 44 45 41 39 32 34 36 39 40 39 41 45 43 41 37 42 44 48 50 55 57 58 58 58 57
34 33 36 33 36 35 38 36 37 38 38 40 37 40 39 35 36 33 37 36 37 41 37 34 31 35 33 39 41 40 43 45 48 45 42 44 43 51 52 54 55 56 56 55 56
40 42 40 35 34 33 33 37 38 39 42 45 42 39 39 40 43 44 43 42 41 37 32 32 32 33 32 40 38 35 41 45 48 48 46 38 45 49 50 52 53 54 54 54 55
MSLP
1020.59 1020.16 1019.74 1019.29 1018.83 1018.37 1017.94 1017.50 1017.05 1016.59 1016.18 1015.84 1015.46 1015.12 1014.78 1014.34 1013.70 1013.12 1011.95 1009.55 1009.78 1009.13 1009.45 1009.28 1009.08 1008.94 1009.24 1009.27 1008.98 1008.64 1009.01 1007.71 1006.57 1006.02 1004.60 1003.52 1003.15 1001.81 1001.28 1000.52 999.96 999.43 999.10 999.01 1000.69
1020.47 1019.92 1019.42 1018.95 1018.48 1018.02 1017.58 1017.16 1016.80 1016.44 1016.13 1015.79 1015.39 1014.99 1014.60 1014.06 1013.34 1011.64 1008.99 1008.79 1008.65 1009.01 1009.33 1009.29 1009.23 1009.04 1009.11 1008.87 1008.63 1008.45 1007.63 1005.90 1005.10 1005.16 1004.32 1003.35 1003.03 1002.55 1001.74 1000.65 999.86 998.84 997.38 998.21 1000.24
1020.50 1019.94 1019.35 1018.82 1018.32 1017.80 1017.27 1016.84 1016.40 1015.93 1015.60 1015.40 1015.12 1014.77 1014.52 1014.22 1013.32 1009.69 1007.77 1007.92 1008.10 1008.26 1008.30 1008.81 1008.85 1009.06 1008.95 1008.46 1008.00 1007.25 1005.72 1005.31 1004.84 1004.76 1004.19 1003.18 1002.47 1002.66 1002.04 1000.73 1000.17 999.95 998.13 998.56 1000.05
1020.52 1019.92 1019.28 1018.72 1018.09 1017.51 1016.84 1016.34 1015.90 1015.60 1015.25 1014.85 1014.69 1014.66 1014.45 1014.19 1012.76 1008.46 1007.71 1007.71 1007.82 1007.44 1007.64 1008.29 1008.87 1008.97 1008.80 1008.02 1007.33 1006.75 1005.44 1005.19 1004.77 1004.38 1003.96 1003.03 1002.69 1001.87 1001.84 1000.67 1000.10 999.72 998.75 998.84 999.96
1020.34 1019.65 1018.98 1018.45 1017.76 1017.09 1016.37 1015.90 1015.45 1015.21 1014.69 1014.38 1014.16 1014.19 1014.01 1013.81 1011.66 1008.48 1008.33 1007.85 1007.66 1007.15 1007.45 1008.07 1008.43 1008.65 1008.11 1007.41 1007.08 1006.06 1005.26 1004.83 1004.70 1004.31 1003.57 1003.22 1002.28 1002.42 1001.00 1000.49 999.84 999.73 999.64 998.43 999.20
1020.09 1019.36 1018.64 1018.01 1017.26 1016.45 1015.50 1014.84 1014.39 1014.30 1013.74 1013.80 1013.70 1013.86 1013.95 1012.70 1008.83 1008.42 1008.52 1008.10 1007.93 1008.15 1007.98 1007.91 1007.57 1007.74 1007.72 1007.00 1006.75 1005.32 1005.34 1004.86 1004.43 1003.70 1003.26 1002.98 1002.29 1002.41 999.44 1000.22 999.91 999.90 999.54 999.71 999.10
1019.73 1019.01 1018.27 1017.60 1016.75 1015.94 1015.04 1014.27 1013.35 1013.13 1012.94 1012.94 1013.11 1013.32 1013.05 1010.90 1008.18 1007.97 1008.26 1008.05 1007.61 1008.00 1007.83 1007.35 1007.37 1007.20 1006.64 1007.06 1006.03 1005.60 1005.29 1004.68 1003.63 1003.08 1002.65 1003.15 1002.10 999.24 999.20 1000.41 1000.04 999.62 999.67 999.62 999.43
1019.31 1018.60 1017.83 1017.04 1016.25 1015.44 1014.56 1013.59 1012.47 1012.02 1011.86 1011.84 1012.37 1012.69 1011.62 1008.76 1008.22 1008.06 1007.36 1006.90 1006.38 1006.59 1007.00 1006.34 1006.54 1007.00 1006.64 1006.56 1005.66 1005.70 1005.28 1004.37 1001.89 1002.77 1002.18 1002.81 999.92 999.00 999.70 1000.25 1000.04 999.51 999.27 999.46 999.97
1019.07 1018.30 1017.40 1016.63 1015.87 1015.03 1014.14 1013.09 1011.64 1011.52 1011.15 1011.58 1012.21 1012.18 1010.15 1008.03 1007.62 1006.37 1006.85 1006.28 1005.38 1005.24 1005.60 1005.12 1005.74 1006.08 1006.41 1006.78 1006.88 1005.79 1004.94 1003.53 1002.71 1001.99 1001.87 1001.42 999.73 999.47 999.59 999.90 999.82 999.69 999.29 999.08 999.49
1018.86 1018.00 1017.07 1016.16 1015.39 1014.61 1013.77 1012.48 1010.86 1011.25 1011.24 1011.49 1011.45 1012.06 1009.23 1007.44 1006.22 1005.44 1004.77 1004.80 1004.72 1004.68 1004.91 1005.12 1005.28 1005.62 1005.87 1005.96 1005.45 1004.71 1004.13 1003.37 1002.08 1001.28 1001.31 1000.85 999.73 999.64 999.13 999.38 999.55 999.54 999.46 999.27 999.45
1018.62 1017.60 1016.60 1015.58 1014.73 1014.37 1013.50 1012.54 1011.31 1011.09 1010.85 1010.50 1009.67 1009.45 1008.04 1006.63 1005.44 1004.95 1004.36 1004.09 1004.14 1004.68 1005.11 1005.40 1005.58 1005.33 1005.42 1005.43 1004.93 1004.83 1004.24 1003.29 1002.05 1001.18 1001.04 1000.21 999.82 999.42 999.01 999.04 999.20 999.23 999.50 999.31 999.33
1018.30 1017.28 1016.39 1015.21 1014.06 1013.52 1013.53 1013.05 1011.87 1011.29 1010.07 1008.35 1008.22 1007.74 1006.80 1006.10 1005.36 1004.71 1004.38 1004.66 1004.90 1005.15 1005.18 1005.82 1005.11 1004.90 1005.04 1004.97 1004.65 1004.50 1004.11 1003.18 1002.17 1001.20 1000.66 999.99 999.24 999.24 998.95 998.23 998.41 998.82 999.05 999.17 999.14
1017.89 1016.99 1016.08 1014.93 1013.81 1013.19 1013.18 1012.26 1011.03 1010.77 1010.82 1008.59 1007.51 1006.82 1006.22 1006.21 1005.47 1004.58 1004.41 1004.86 1005.03 1004.82 1004.82 1004.98 1004.47 1004.78 1004.93 1004.70 1004.27 1003.72 1003.43 1003.28 1002.46 1001.50 1000.71 1000.34 999.44 999.24 998.60 997.99 997.86 997.84 997.85 998.31 998.73
1017.50 1016.38 1016.00 1014.84 1013.49 1013.59 1012.38 1011.11 1011.11 1010.64 1010.87 1008.84 1007.18 1006.12 1005.88 1005.56 1005.50 1004.80 1004.75 1005.49 1005.04 1004.77 1004.77 1004.87 1004.19 1004.40 1004.20 1004.02 1004.26 1003.61 1003.54 1003.20 1002.64 1002.26 1001.57 1000.32 999.45 998.79 998.00 997.67 997.43 997.36 997.63 997.87 998.33
1016.99 1016.01 1015.02 1014.87 1014.30 1013.56 1011.20 1010.60 1010.97 1011.02 1010.75 1008.58 1007.00 1005.80 1006.06 1006.00 1005.53 1005.08 1005.02 1005.17 1005.10 1004.97 1005.10 1003.93 1003.18 1003.19 1003.23 1003.02 1003.73 1003.47 1003.50 1003.25 1003.14 1002.41 1002.05 1001.14 1000.87 997.84 997.52 997.49 996.94 996.53 996.87 997.49 998.17
1016.45 1015.28 1014.87 1014.10 1014.25 1011.73 1010.56 1010.61 1010.98 1012.09 1010.45 1008.72 1007.64 1006.86 1006.41 1005.92 1005.61 1005.10 1005.01 1005.42 1005.33 1004.83 1004.54 1003.98 1002.99 1002.68 1002.59 1002.82 1003.32 1003.62 1003.60 1003.25 1003.27 1003.12 1002.19 1000.47 1000.68 998.25 996.95 995.84 995.35 996.08 996.32 996.95 997.92
1015.78 1014.47 1014.18 1013.68 1012.60 1010.40 1010.77 1011.05 1011.70 1011.89 1010.64 1009.24 1008.43 1007.80 1007.07 1006.55 1005.99 1005.68 1005.37 1005.96 1006.01 1005.43 1004.48 1003.49 1002.43 1001.87 1002.06 1002.27 1002.87 1003.86 1003.90 1003.66 1003.52 1002.70 1001.76 1000.29 1000.06 998.33 996.04 994.99 994.99 995.40 996.04 996.65 997.35
1015.05 1013.54 1013.01 1012.05 1010.81 1010.96 1011.48 1012.00 1012.35 1011.71 1010.93 1009.84 1009.02 1008.28 1007.72 1007.39 1006.92 1006.19 1005.95 1006.24 1005.91 1005.82 1004.77 1003.96 1002.71 1001.68 1001.43 1001.48 1001.96 1002.82 1003.27 1003.16 1002.50 1002.05 1001.23 1000.01 998.71 996.81 994.97 994.87 994.48 994.57 995.32 996.05 996.90
1014.71 1013.54 1012.75 1010.81 1010.39 1010.99 1012.27 1012.94 1012.77 1011.65 1010.81 1009.82 1008.83 1008.49 1008.13 1008.11 1008.32 1007.07 1006.49 1006.51 1006.26 1005.99 1006.08 1004.96 1003.26 1002.07 1001.56 1001.10 1001.43 1002.04 1002.38 1002.03 1002.10 1001.67 1000.97 999.58 998.03 996.47 995.62 995.04 994.86 994.84 995.08 995.78 996.57
1015.84 1014.76 1012.64 1010.37 1010.06 1010.98 1012.75 1013.11 1012.24 1011.39 1010.59 1010.31 1009.82 1009.38 1009.02 1008.69 1008.57 1007.82 1006.92 1006.94 1006.57 1006.44 1006.22 1005.55 1004.33 1002.09 1001.47 1000.68 1000.98 1001.35 1001.74 1002.38 1002.70 1001.59 1000.91 999.88 998.20 997.05 996.22 996.10 995.57 995.07 995.34 995.92 996.58
1016.10 1014.88 1012.17 1010.67 1010.45 1012.39 1013.67 1013.42 1012.07 1011.12 1010.58 1010.20 1009.85 1009.80 1009.74 1009.48 1009.15 1008.30 1007.26 1006.64 1006.59 1006.36 1006.35 1005.87 1005.28 1003.15 1002.13 1000.95 1000.45 1001.48 1001.59 1002.21 1002.09 1001.32 1000.35 999.86 998.61 997.60 997.39 996.97 996.18 995.25 995.70 996.28 997.37
1017.91 1015.77 1012.64 1011.39 1013.15 1014.44 1014.60 1013.99 1012.57 1011.09 1010.56 1010.05 1010.10 1010.07 1009.94 1009.75 1009.02 1008.32 1007.47 1006.97 1006.41 1006.57 1005.96 1005.94 1005.76 1004.40 1002.64 1000.78 1000.40 1000.13 1000.72 1001.86 1001.69 1001.28 1000.56 999.81 999.42 998.67 997.99 997.16 996.84 996.00 995.97 997.00 997.47
1018.84 1016.87 1013.58 1013.30 1015.92 1016.45 1015.74 1014.33 1013.14 1011.63 1010.87 1010.75 1010.58 1010.51 1010.45 1010.08 1009.23 1007.96 1006.96 1006.38 1006.43 1006.47 1005.83 1005.90 1005.68 1004.71 1002.58 1001.88 1000.94 1000.99 1000.99 1000.78 1000.90 1000.84 1000.73 1000.30 999.90 998.77 998.03 997.90 997.87 996.69 997.55 997.65 998.39
1019.32 1018.30 1016.83 1016.54 1017.07 1017.41 1016.99 1015.19 1013.54 1012.35 1011.52 1011.36 1010.97 1010.69 1010.25 1009.64 1009.01 1007.75 1006.83 1006.30 1006.19 1005.84 1005.19 1005.04 1005.40 1004.87 1003.54 1002.40 1002.46 1001.33 1000.30 999.96 1000.39 1001.06 1000.86 1001.19 1000.58 999.85 999.00 998.75 998.67 998.28 998.79 998.74 999.48
1019.89 1020.28 1019.70 1018.90 1017.97 1017.67 1017.26 1015.65 1014.39 1013.38 1012.31 1011.54 1011.06 1010.95 1010.28 1009.14 1008.04 1006.91 1006.58 1005.51 1004.94 1004.85 1005.31 1005.50 1005.02 1004.38 1003.00 1002.21 1001.82 1000.99 1000.25 999.54 999.80 1000.29 1001.01 1001.45 1001.10 1000.74 1000.40 1000.16 999.73 999.34 999.96 1000.32 1001.17
1021.25 1021.25 1020.42 1019.96 1018.92 1018.14 1016.77 1016.24 1015.26 1013.93 1013.33 1011.96 1011.71 1010.60 1009.89 1009.38 1008.77 1006.74 1006.63 1005.36 1004.97 1004.48 1005.29 1005.77 1004.94 1003.81 1002.11 1000.91 1000.65 1000.03 999.60 999.23 999.33 999.91 1001.06 1001.45 1001.97 1001.57 1001.33 1000.82 1000.76 1000.65 1001.08 1001.79 1002.75
1021.49 1021.08 1020.83 1019.64 1018.96 1018.64 1017.44 1016.79 1015.70 1015.04 1013.13 1012.36 1011.53 1010.44 1008.87 1008.02 1007.39 1005.82 1005.19 1004.60 1004.52 1004.26 1004.82 1005.37 1004.88 1003.63 1001.55 1000.04 1000.19 999.73 998.47 998.41 998.65 999.45 1000.27 1001.67 1002.19 1002.19 1002.37 1001.83 1002.16 1001.88 1002.33 1002.90 1003.96
Wind_Speed
20 20 20 20 20 20 21 21 21 21 20 20 20 20 21 22 22 13 10 13 12 23 8 7 5 3 4 5 5 3 4 13 13 12 10 4 4 5 4 12 14 11 10 15 19
22 22 22 22 22 22 22 22 21 20 20 19 19 18 18 19 17 18 16 11 15 16 4 6 4 2 3 7 5 7 9 17 4 11 8 8 6 5 8 14 13 16 6 27 29
22 22 23 23 23 24 24 24 24 23 22 20 18 17 16 13 7 8 10 15 3 12 16 11 4 3 6 4 8 6 17 21 5 9 9 14 17 4 9 17 7 10 16 26 27
22 23 23 24 24 25 26 25 24 24 23 20 17 16 15 4 8 3 5 20 23 16 8 8 6 5 6 10 7 7 11 18 3 6 10 21 11 15 5 9 13 10 17 20 25
23 23 24 24 25 26 26 26 24 22 21 18 16 13 5 3 16 12 23 25 18 6 8 14 12 8 7 5 6 17 14 5 11 13 13 12 19 10 19 13 15 7 8 24 24
23 24 25 25 27 27 26 25 24 20 20 17 13 9 3 10 8 8 11 14 9 3 6 4 6 9 7 8 13 4 12 20 14 14 12 22 22 6 23 4 11 6 3 9 20
24 26 27 27 27 28 27 26 26 20 19 14 8 6 8 19 5 8 11 10 10 8 5 6 7 7 8 9 13 12 16 15 16 20 16 5 18 31 23 5 11 10 7 5 9
25 26 28 29 29 28 27 28 28 23 16 7 7 6 9 7 8 13 13 11 12 16 16 12 11 10 17 6 7 2 4 14 25 12 17 12 28 25 8 8 11 10 7 4 8
26 27 28 30 29 29 27 27 30 15 9 9 5 4 11 8 6 12 14 12 16 7 11 11 10 10 5 12 4 4 9 14 13 14 9 18 22 20 8 9 10 8 8 5 4
26 27 28 28 29 27 26 26 25 8 5 7 2 4 5 8 13 18 16 10 12 5 1 6 5 4 7 10 16 16 15 11 15 7 16 20 18 11 8 11 10 8 9 7 5
28 28 28 29 28 23 15 7 6 5 1 6 16 15 22 13 12 13 13 6 2 3 5 3 4 11 10 12 15 14 14 10 8 7 13 19 21 13 13 6 9 9 9 9 9
29 29 28 29 29 28 3 3 6 5 13 17 14 10 14 4 11 16 8 4 2 6 4 1 10 11 11 15 18 17 17 16 14 10 9 16 22 13 10 16 12 10 10 10 6
29 28 28 28 30 5 4 5 5 5 3 10 7 6 7 2 12 13 6 5 7 9 8 11 8 9 8 14 14 16 17 13 14 12 11 8 14 8 12 10 13 10 11 9 12
30 30 26 28 4 5 7 4 4 4 4 7 2 4 9 2 5 2 4 0 4 5 6 12 17 15 13 14 18 15 13 16 12 13 7 6 11 10 18 15 13 17 11 12 12
30 30 28 17 4 3 9 4 4 6 4 17 8 6 20 9 14 0 1 1 10 12 1 7 10 13 11 17 10 13 15 12 14 13 3 14 3 9 10 16 16 17 13 12 11
31 31 27 2 2 11 8 10 2 7 4 10 15 22 21 14 19 10 9 2 4 7 8 10 5 6 8 7 4 10 8 14 10 3 8 16 7 6 6 22 25 12 12 13 10
34 34 18 3 6 5 6 5 7 5 11 9 23 21 22 10 16 11 14 5 4 6 1 4 14 10 7 6 3 6 1 5 6 7 7 8 8 10 11 10 14 17 12 10 10
37 30 5 6 7 2 5 7 5 6 13 14 17 19 8 14 13 10 11 1 3 5 3 3 5 2 10 8 8 11 9 4 6 7 9 9 10 10 20 10 12 19 17 13 12
30 5 4 8 6 4 6 5 4 5 11 16 19 7 10 15 7 9 7 2 4 7 4 4 4 3 9 12 11 5 9 10 3 3 3 3 5 4 7 4 8 11 11 11 10
7 5 5 8 4 6 6 4 3 4 13 10 12 7 16 16 11 12 4 2 8 8 5 3 7 5 8 3 12 5 4 7 4 4 5 6 13 7 5 5 8 8 10 9 9
3 5 6 11 5 7 3 5 7 10 10 10 8 9 7 7 10 6 7 4 5 6 7 3 3 3 2 5 11 4 4 2 5 4 5 8 6 4 3 5 7 4 9 10 14
5 4 5 6 6 3 4 9 9 15 11 5 7 4 4 8 7 4 5 7 8 12 9 3 2 6 9 5 3 2 6 8 6 6 1 3 4 6 9 3 3 11 18 19 24
5 4 4 7 4 4 7 10 8 14 15 9 6 7 7 8 9 7 6 4 9 12 3 3 2 5 1 2 2 2 8 6 4 1 4 3 3 7 6 9 3 22 18 22 25
3 6 6 6 2 2 6 7 14 9 10 13 7 8 14 13 7 11 9 5 18 15 20 11 4 8 5 2 1 6 5 10 6 4 3 2 3 6 6 11 14 19 18 22 23
5 3 2 6 6 11 10 6 15 14 5 6 4 15 19 11 16 5 20 23 13 7 2 1 5 8 14 14 12 14 11 5 11 9 5 4 3 3 3 9 15 18 19 21 24
3 4 4 5 9 7 6 8 14 21 5 7 14 21 17 12 11 26 23 20 7 5 4 1 4 3 10 16 13 10 12 5 8 12 7 4 1 1 5 4 14 20 23 23 24
3 3 2 5 5 5 3 11 16 14 11 9 19 19 21 13 23 27 23 24 19 7 5 4 2 3 4 11 10 6 11 12 6 13 11 6 4 4 6 11 14 21 23 25 25
Wind_Direction
348 347 345 342 338 332 329 326 324 323 323 323 322 322 323 322 315 308 252 223 198 247 275 287 295 201 205 226 229 171 188 230 223 207 243 286 243 235 273 259 284 240 185 179 152
348 345 342 339 335 330 326 322 321 319 318 319 319 321 324 322 313 280 243 245 225 247 217 226 250 201 202 200 214 187 219 229 177 211 237 262 235 338 326 314 305 307 208 147 152
345 341 337 333 329 326 323 321 319 318 318 320 320 322 323 322 324 252 278 201 228 315 229 211 235 203 222 181 201 209 233 230 257 238 232 258 274 279 293 285 281 325 158 145 156
342 338 333 331 326 324 320 319 318 320 319 315 316 319 318 337 297 291 297 311 325 316 187 206 224 198 207 213 197 259 239 239 220 250 235 257 291 267 239 265 281 315 172 156 156
339 335 331 330 326 323 319 317 316 317 308 308 306 309 320 273 246 258 298 310 319 292 175 191 199 192 208 209 211 229 238 260 240 253 269 271 264 285 270 271 281 310 283 168 169
337 333 330 329 326 324 318 316 310 306 297 294 293 290 229 268 245 270 268 294 294 359 314 234 207 206 271 237 235 235 214 246 246 252 244 250 271 283 262 273 282 269 236 236 177
336 332 329 330 327 324 319 317 310 306 303 288 263 224 238 250 236 276 298 270 270 249 252 230 272 246 210 266 282 269 279 270 250 238 247 253 268 242 255 256 268 266 209 218 229
336 332 330 331 329 326 323 315 306 310 306 280 204 182 252 258 254 282 275 272 236 237 217 230 214 248 252 282 296 304 240 244 249 230 238 188 250 256 253 206 252 259 255 198 200
335 331 328 328 329 326 319 312 302 318 295 127 142 176 264 294 245 242 228 263 268 241 211 217 215 223 216 230 285 246 246 235 261 222 222 204 247 254 237 202 231 250 266 253 202
334 330 327 325 325 324 318 308 288 325 115 157 241 295 266 289 279 293 295 279 253 215 284 204 201 176 214 199 213 220 234 249 245 209 222 238 244 241 233 196 214 236 249 237 215
334 329 328 326 325 325 328 352 6 338 297 238 273 245 274 281 289 299 320 308 87 72 161 136 186 232 237 242 244 254 267 257 253 220 211 229 239 246 226 220 209 217 233 241 221
333 330 331 328 325 325 108 325 255 213 311 316 291 266 265 236 310 316 329 346 49 254 204 160 214 221 239 249 232 238 254 267 275 263 222 234 237 228 218 227 219 202 222 224 227
332 329 331 327 320 345 295 239 239 95 283 302 251 278 269 357 309 293 297 351 284 267 178 226 231 217 235 256 258 233 238 243 254 272 291 236 249 222 235 232 213 220 211 207 206
331 328 333 333 14 322 287 250 287 111 45 285 315 342 325 180 303 314 44 180 279 279 277 243 241 235 228 238 238 243 245 259 263 246 236 177 249 211 218 209 211 216 209 213 219
329 327 329 321 250 297 246 316 248 57 2 335 18 287 335 1 333 267 39 144 264 253 351 241 201 201 220 229 238 261 226 231 256 263 262 267 276 246 193 213 217 217 208 201 204
328 324 329 355 219 239 289 307 71 47 294 320 355 329 331 331 342 326 316 105 305 274 242 252 271 188 182 179 248 237 300 235 244 228 234 235 198 270 192 201 217 213 206 190 186
328 322 320 220 243 270 345 13 39 70 344 319 334 329 320 344 331 314 336 11 336 322 306 267 226 212 190 152 185 215 102 185 228 197 227 188 211 244 264 223 201 203 199 193 171
328 319 234 218 243 332 14 36 42 332 302 316 325 319 300 358 320 310 322 53 317 19 309 331 281 217 193 193 163 215 186 171 202 152 220 163 204 237 232 247 224 194 189 187 172
327 326 304 263 244 119 66 39 217 284 336 324 327 319 312 333 316 331 331 330 346 27 15 308 288 247 252 214 183 181 188 200 318 187 91 202 228 290 253 255 219 190 165 185 172
325 329 286 296 331 66 73 254 243 300 319 346 313 298 312 333 329 342 299 47 360 34 342 281 286 215 286 181 192 183 152 152 260 196 161 184 214 227 204 211 271 191 183 180 152
16 10 282 324 52 44 120 248 305 333 338 322 309 298 305 306 317 306 273 313 21 1 345 300 267 316 318 227 170 152 133 166 200 257 155 165 243 326 319 247 220 260 188 134 114
348 345 317 13 47 13 338 302 313 339 351 348 305 339 267 309 289 267 256 284 343 358 305 196 238 265 241 275 18 141 159 190 137 214 284 173 254 312 251 151 212 103 118 118 117
319 275 331 58 60 338 301 310 293 334 341 3 295 6 323 308 311 237 261 262 318 329 279 159 218 300 229 58 133 168 181 165 136 113 175 122 283 339 99 101 147 115 114 115 114
358 347 334 28 129 2 318 286 345 342 305 345 285 343 321 312 277 286 269 301 300 289 274 225 198 209 228 50 313 278 241 160 151 118 151 60 26 356 97 112 128 111 115 114 111
25 336 16 315 328 320 308 321 345 351 320 321 295 328 324 312 306 259 309 308 293 248 80 217 244 231 251 254 257 253 260 175 180 144 131 156 53 322 334 143 132 116 108 104 104
54 7 342 270 287 308 328 348 345 337 306 301 331 315 312 296 282 303 306 301 275 180 148 199 267 256 267 239 225 228 227 188 177 136 110 143 219 333 236 205 117 118 113 107 105
309 312 239 274 310 329 317 336 330 337 299 295 313 310 309 300 303 286 277 269 257 233 194 198 245 286 306 146 172 231 226 189 183 154 140 155 173 134 217 139 125 114 107 105 104